����������;��������(kWh)
2017-09-11 00:00;90,65
2017-09-11 00:15;88,9
2017-09-11 00:30;89,35
2017-09-11 00:45;96,9
2017-09-11 01:00;100,4
2017-09-11 01:15;100,1
2017-09-11 01:30;89,3
2017-09-11 01:45;92,25
2017-09-11 02:00;90,95
2017-09-11 02:15;90,85
2017-09-11 02:30;90
2017-09-11 02:45;88,3
2017-09-11 03:00;91,65
2017-09-11 03:15;89,5
2017-09-11 03:30;89,15
2017-09-11 03:45;88,45
2017-09-11 04:00;90,25
2017-09-11 04:15;88,85
2017-09-11 04:30;88
2017-09-11 04:45;88,4
2017-09-11 05:00;87,6
2017-09-11 05:15;90,75
2017-09-11 05:30;90,55
2017-09-11 05:45;87,4
2017-09-11 06:00;94,7
2017-09-11 06:15;95,6
2017-09-11 06:30;94,55
2017-09-11 06:45;93,25
2017-09-11 07:00;95,4
2017-09-11 07:15;98,4
2017-09-11 07:30;137,4
2017-09-11 07:45;147,85
2017-09-11 08:00;145,95
2017-09-11 08:15;132,95
2017-09-11 08:30;140,55
2017-09-11 08:45;152,55
2017-09-11 09:00;172,25
2017-09-11 09:15;180
2017-09-11 09:30;186,85
2017-09-11 09:45;193,55
2017-09-11 10:00;201,95
2017-09-11 10:15;195
2017-09-11 10:30;211,4
2017-09-11 10:45;210,75
2017-09-11 11:00;224,15
2017-09-11 11:15;242,3
2017-09-11 11:30;247,25
2017-09-11 11:45;237,8
2017-09-11 12:00;242,1
2017-09-11 12:15;250,5
2017-09-11 12:30;261,7
2017-09-11 12:45;271,05
2017-09-11 13:00;260
2017-09-11 13:15;249,85
2017-09-11 13:30;238,8
2017-09-11 13:45;243,2
2017-09-11 14:00;244,9
2017-09-11 14:15;250,3
2017-09-11 14:30;246,25
2017-09-11 14:45;245,05
2017-09-11 15:00;280,15
2017-09-11 15:15;287,85
2017-09-11 15:30;270,7
2017-09-11 15:45;253,7
2017-09-11 16:00;229,45
2017-09-11 16:15;227,75
2017-09-11 16:30;219,6
2017-09-11 16:45;223,5
2017-09-11 17:00;221,45
2017-09-11 17:15;207,15
2017-09-11 17:30;195,95
2017-09-11 17:45;190,95
2017-09-11 18:00;179,95
2017-09-11 18:15;174,9
2017-09-11 18:30;172,15
2017-09-11 18:45;173,55
2017-09-11 19:00;178,25
2017-09-11 19:15;173,3
2017-09-11 19:30;168,15
2017-09-11 19:45;165,5
2017-09-11 20:00;161,4
2017-09-11 20:15;148,55
2017-09-11 20:30;150,6
2017-09-11 20:45;145,1
2017-09-11 21:00;140,85
2017-09-11 21:15;137,55
2017-09-11 21:30;136,2
2017-09-11 21:45;131,75
2017-09-11 22:00;121,75
2017-09-11 22:15;130,2
2017-09-11 22:30;125,3
2017-09-11 22:45;120,9
2017-09-11 23:00;118,35
2017-09-11 23:15;110,5
2017-09-11 23:30;109
2017-09-11 23:45;108,75
2017-09-12 00:00;108,3
2017-09-12 00:15;108
2017-09-12 00:30;108,15
2017-09-12 00:45;106,25
2017-09-12 01:00;105,75
2017-09-12 01:15;103,5
2017-09-12 01:30;105,25
2017-09-12 01:45;98,35
2017-09-12 02:00;93,5
2017-09-12 02:15;93,15
2017-09-12 02:30;93,25
2017-09-12 02:45;91,9
2017-09-12 03:00;91,6
2017-09-12 03:15;91,55
2017-09-12 03:30;91,3
2017-09-12 03:45;90,8
2017-09-12 04:00;89,15
2017-09-12 04:15;89,55
2017-09-12 04:30;90,8
2017-09-12 04:45;89,35
2017-09-12 05:00;90,4
2017-09-12 05:15;89,15
2017-09-12 05:30;91,5
2017-09-12 05:45;93,55
2017-09-12 06:00;96,55
2017-09-12 06:15;96,3
2017-09-12 06:30;99,6
2017-09-12 06:45;108,4
2017-09-12 07:00;105,05
2017-09-12 07:15;103,85
2017-09-12 07:30;104,3
2017-09-12 07:45;107,4
2017-09-12 08:00;103,2
2017-09-12 08:15;0
2017-09-12 08:30;98,2
2017-09-12 08:45;127,05
2017-09-12 09:00;132,75
2017-09-12 09:15;142,7
2017-09-12 09:30;156,8
2017-09-12 09:45;160,2
2017-09-12 10:00;171,15
2017-09-12 10:15;232,85
2017-09-12 10:30;196,1
2017-09-12 10:45;225,3
2017-09-12 11:00;240,1
2017-09-12 11:15;224,4
2017-09-12 11:30;217,2
2017-09-12 11:45;222,25
2017-09-12 12:00;212,05
2017-09-12 12:15;231,1
2017-09-12 12:30;237,8
2017-09-12 12:45;240,05
2017-09-12 13:00;244,15
2017-09-12 13:15;253,25
2017-09-12 13:30;282,1
2017-09-12 13:45;258,6
2017-09-12 14:00;228,9
2017-09-12 14:15;237,45
2017-09-12 14:30;238,7
2017-09-12 14:45;226,65
2017-09-12 15:00;238,4
2017-09-12 15:15;234,85
2017-09-12 15:30;225,45
2017-09-12 15:45;224,65
2017-09-12 16:00;219,6
2017-09-12 16:15;209,3
2017-09-12 16:30;199,45
2017-09-12 16:45;191,6
2017-09-12 17:00;182,45
2017-09-12 17:15;183,75
2017-09-12 17:30;175,45
2017-09-12 17:45;175,2
2017-09-12 18:00;169,25
2017-09-12 18:15;166,1
2017-09-12 18:30;159,25
2017-09-12 18:45;150,5
2017-09-12 19:00;142,1
2017-09-12 19:15;142,3
2017-09-12 19:30;141,65
2017-09-12 19:45;136,4
2017-09-12 20:00;141,6
2017-09-12 20:15;133,45
2017-09-12 20:30;134,75
2017-09-12 20:45;133,5
2017-09-12 21:00;129,2
2017-09-12 21:15;123,35
2017-09-12 21:30;121,95
2017-09-12 21:45;112,7
2017-09-12 22:00;106,65
2017-09-12 22:15;112,35
2017-09-12 22:30;112,95
2017-09-12 22:45;100,4
2017-09-12 23:00;101,15
2017-09-12 23:15;94
2017-09-12 23:30;93,25
2017-09-12 23:45;97,8
2017-09-13 00:00;91,7
2017-09-13 00:15;96,2
2017-09-13 00:30;93,9
2017-09-13 00:45;92,3
2017-09-13 01:00;93,45
2017-09-13 01:15;91,25
2017-09-13 01:30;92,8
2017-09-13 01:45;89,95
2017-09-13 02:00;93
2017-09-13 02:15;91
2017-09-13 02:30;92,95
2017-09-13 02:45;90,7
2017-09-13 03:00;89,35
2017-09-13 03:15;87,4
2017-09-13 03:30;86,65
2017-09-13 03:45;87,75
2017-09-13 04:00;86
2017-09-13 04:15;86,35
2017-09-13 04:30;88,5
2017-09-13 04:45;85,2
2017-09-13 05:00;88,65
2017-09-13 05:15;87,9
2017-09-13 05:30;89,15
2017-09-13 05:45;87,9
2017-09-13 06:00;90,7
2017-09-13 06:15;96,3
2017-09-13 06:30;109,5
2017-09-13 06:45;113,7
2017-09-13 07:00;109,5
2017-09-13 07:15;105,6
2017-09-13 07:30;144,35
2017-09-13 07:45;136,35
2017-09-13 08:00;119,4
2017-09-13 08:15;122,2
2017-09-13 08:30;137,4
2017-09-13 08:45;148,65
2017-09-13 09:00;165,35
2017-09-13 09:15;163,45
2017-09-13 09:30;175,9
2017-09-13 09:45;188,55
2017-09-13 10:00;186,8
2017-09-13 10:15;200,9
2017-09-13 10:30;201,45
2017-09-13 10:45;242,9
2017-09-13 11:00;264,35
2017-09-13 11:15;234,05
2017-09-13 11:30;239,05
2017-09-13 11:45;253,6
2017-09-13 12:00;242,1
2017-09-13 12:15;254,05
2017-09-13 12:30;270,65
2017-09-13 12:45;253,4
2017-09-13 13:00;265,5
2017-09-13 13:15;253,5
2017-09-13 13:30;254,35
2017-09-13 13:45;252,1
2017-09-13 14:00;257,7
2017-09-13 14:15;253,25
2017-09-13 14:30;256,05
2017-09-13 14:45;244,8
2017-09-13 15:00;240,75
2017-09-13 15:15;234,5
2017-09-13 15:30;232,45
2017-09-13 15:45;216,65
2017-09-13 16:00;210,3
2017-09-13 16:15;203,4
2017-09-13 16:30;196,8
2017-09-13 16:45;195,1
2017-09-13 17:00;197,25
2017-09-13 17:15;182,4
2017-09-13 17:30;184,7
2017-09-13 17:45;180,4
2017-09-13 18:00;180,1
2017-09-13 18:15;174,75
2017-09-13 18:30;168,2
2017-09-13 18:45;159,1
2017-09-13 19:00;153
2017-09-13 19:15;155,8
2017-09-13 19:30;150,6
2017-09-13 19:45;149
2017-09-13 20:00;142,55
2017-09-13 20:15;125
2017-09-13 20:30;125,05
2017-09-13 20:45;126,75
2017-09-13 21:00;119,5
2017-09-13 21:15;125,15
2017-09-13 21:30;119,1
2017-09-13 21:45;110,65
2017-09-13 22:00;106,75
2017-09-13 22:15;111,2
2017-09-13 22:30;109,65
2017-09-13 22:45;102,65
2017-09-13 23:00;109,9
2017-09-13 23:15;96
2017-09-13 23:30;95,45
2017-09-13 23:45;95,15
2017-09-14 00:00;90,75
2017-09-14 00:15;88,55
2017-09-14 00:30;88,3
2017-09-14 00:45;87,9
2017-09-14 01:00;87,6
2017-09-14 01:15;88,5
2017-09-14 01:30;85,9
2017-09-14 01:45;85,95
2017-09-14 02:00;85,45
2017-09-14 02:15;86,85
2017-09-14 02:30;85,35
2017-09-14 02:45;85,35
2017-09-14 03:00;85
2017-09-14 03:15;84,8
2017-09-14 03:30;83,05
2017-09-14 03:45;83,9
2017-09-14 04:00;84,2
2017-09-14 04:15;87,4
2017-09-14 04:30;86,6
2017-09-14 04:45;84,6
2017-09-14 05:00;87,2
2017-09-14 05:15;86,4
2017-09-14 05:30;87,25
2017-09-14 05:45;85,45
2017-09-14 06:00;89,7
2017-09-14 06:15;88,8
2017-09-14 06:30;97,2
2017-09-14 06:45;112,9
2017-09-14 07:00;105,05
2017-09-14 07:15;106,35
2017-09-14 07:30;141,15
2017-09-14 07:45;132,65
2017-09-14 08:00;124,6
2017-09-14 08:15;118,6
2017-09-14 08:30;138,15
2017-09-14 08:45;145,15
2017-09-14 09:00;155,55
2017-09-14 09:15;170,65
2017-09-14 09:30;182,2
2017-09-14 09:45;191,5
2017-09-14 10:00;189,75
2017-09-14 10:15;204,45
2017-09-14 10:30;209,15
2017-09-14 10:45;239,45
2017-09-14 11:00;253,8
2017-09-14 11:15;225,2
2017-09-14 11:30;231,85
2017-09-14 11:45;242,05
2017-09-14 12:00;226,45
2017-09-14 12:15;245,8
2017-09-14 12:30;248,95
2017-09-14 12:45;238,15
2017-09-14 13:00;237,95
2017-09-14 13:15;239,5
2017-09-14 13:30;228,6
2017-09-14 13:45;226,6
2017-09-14 14:00;232
2017-09-14 14:15;232,2
2017-09-14 14:30;227,1
2017-09-14 14:45;218,65
2017-09-14 15:00;216,5
2017-09-14 15:15;210,6
2017-09-14 15:30;211,75
2017-09-14 15:45;201,7
2017-09-14 16:00;199,65
2017-09-14 16:15;192,35
2017-09-14 16:30;186,8
2017-09-14 16:45;190,85
2017-09-14 17:00;188,55
2017-09-14 17:15;176,35
2017-09-14 17:30;173,1
2017-09-14 17:45;181,75
2017-09-14 18:00;177
2017-09-14 18:15;167,35
2017-09-14 18:30;164,3
2017-09-14 18:45;154,95
2017-09-14 19:00;151,5
2017-09-14 19:15;150,1
2017-09-14 19:30;145,7
2017-09-14 19:45;152,3
2017-09-14 20:00;143,9
2017-09-14 20:15;136,3
2017-09-14 20:30;136,85
2017-09-14 20:45;134,35
2017-09-14 21:00;129,8
2017-09-14 21:15;122,6
2017-09-14 21:30;123,35
2017-09-14 21:45;122,35
2017-09-14 22:00;112,15
2017-09-14 22:15;115,2
2017-09-14 22:30;112,85
2017-09-14 22:45;110,5
2017-09-14 23:00;112
2017-09-14 23:15;101,5
2017-09-14 23:30;102,2
2017-09-14 23:45;94,8
2017-09-15 00:00;93
2017-09-15 00:15;91,7
2017-09-15 00:30;89,9
2017-09-15 00:45;91,05
2017-09-15 01:00;90,45
2017-09-15 01:15;90
2017-09-15 01:30;89,5
2017-09-15 01:45;88,55
2017-09-15 02:00;88,45
2017-09-15 02:15;87,8
2017-09-15 02:30;89,4
2017-09-15 02:45;87,4
2017-09-15 03:00;87,75
2017-09-15 03:15;86,65
2017-09-15 03:30;88,5
2017-09-15 03:45;86,3
2017-09-15 04:00;86,2
2017-09-15 04:15;89,05
2017-09-15 04:30;84
2017-09-15 04:45;86,8
2017-09-15 05:00;86,95
2017-09-15 05:15;86,1
2017-09-15 05:30;87,5
2017-09-15 05:45;85,85
2017-09-15 06:00;90,9
2017-09-15 06:15;89,25
2017-09-15 06:30;92,1
2017-09-15 06:45;102,15
2017-09-15 07:00;104,15
2017-09-15 07:15;100,55
2017-09-15 07:30;159,9
2017-09-15 07:45;162,5
2017-09-15 08:00;125,45
2017-09-15 08:15;136,2
2017-09-15 08:30;134,1
2017-09-15 08:45;154,1
2017-09-15 09:00;166,35
2017-09-15 09:15;177,45
2017-09-15 09:30;187
2017-09-15 09:45;184,8
2017-09-15 10:00;182,4
2017-09-15 10:15;187,4
2017-09-15 10:30;200,4
2017-09-15 10:45;210
2017-09-15 11:00;216
2017-09-15 11:15;230,3
2017-09-15 11:30;236,7
2017-09-15 11:45;238,45
2017-09-15 12:00;238,45
2017-09-15 12:15;257,6
2017-09-15 12:30;255,95
2017-09-15 12:45;252,05
2017-09-15 13:00;246,6
2017-09-15 13:15;231,6
2017-09-15 13:30;234,9
2017-09-15 13:45;238,75
2017-09-15 14:00;233,95
2017-09-15 14:15;229,75
2017-09-15 14:30;228
2017-09-15 14:45;225,5
2017-09-15 15:00;218,15
2017-09-15 15:15;210,3
2017-09-15 15:30;201,9
2017-09-15 15:45;203,6
2017-09-15 16:00;201,05
2017-09-15 16:15;200,95
2017-09-15 16:30;196,7
2017-09-15 16:45;190,2
2017-09-15 17:00;185,8
2017-09-15 17:15;175,5
2017-09-15 17:30;169,9
2017-09-15 17:45;170
2017-09-15 18:00;169,85
2017-09-15 18:15;162,65
2017-09-15 18:30;157,8
2017-09-15 18:45;146,15
2017-09-15 19:00;144,85
2017-09-15 19:15;143,5
2017-09-15 19:30;136,95
2017-09-15 19:45;139,15
2017-09-15 20:00;142,2
2017-09-15 20:15;134,9
2017-09-15 20:30;129,7
2017-09-15 20:45;132,4
2017-09-15 21:00;123,65
2017-09-15 21:15;118,4
2017-09-15 21:30;113,7
2017-09-15 21:45;112,55
2017-09-15 22:00;107,4
2017-09-15 22:15;106,8
2017-09-15 22:30;109,2
2017-09-15 22:45;101,2
2017-09-15 23:00;107,2
2017-09-15 23:15;95,5
2017-09-15 23:30;92,8
2017-09-15 23:45;93,3
2017-09-16 00:00;94,15
2017-09-16 00:15;89,45
2017-09-16 00:30;90,75
2017-09-16 00:45;86,3
2017-09-16 01:00;89,3
2017-09-16 01:15;87,8
2017-09-16 01:30;88,6
2017-09-16 01:45;87,95
2017-09-16 02:00;88,6
2017-09-16 02:15;88,3
2017-09-16 02:30;87
2017-09-16 02:45;88,7
2017-09-16 03:00;86,5
2017-09-16 03:15;87,8
2017-09-16 03:30;89,7
2017-09-16 03:45;90,8
2017-09-16 04:00;89,6
2017-09-16 04:15;90,65
2017-09-16 04:30;90,5
2017-09-16 04:45;90,9
2017-09-16 05:00;90,15
2017-09-16 05:15;91,2
2017-09-16 05:30;89,55
2017-09-16 05:45;89,35
2017-09-16 06:00;93,45
2017-09-16 06:15;92,55
2017-09-16 06:30;94,65
2017-09-16 06:45;92,25
2017-09-16 07:00;86,75
2017-09-16 07:15;86,35
2017-09-16 07:30;81,9
2017-09-16 07:45;83,75
2017-09-16 08:00;80,05
2017-09-16 08:15;83,9
2017-09-16 08:30;87,75
2017-09-16 08:45;86,25
2017-09-16 09:00;88,85
2017-09-16 09:15;86,8
2017-09-16 09:30;87,85
2017-09-16 09:45;90,4
2017-09-16 10:00;87,45
2017-09-16 10:15;92,25
2017-09-16 10:30;91,35
2017-09-16 10:45;95
2017-09-16 11:00;94,2
2017-09-16 11:15;97,45
2017-09-16 11:30;98,45
2017-09-16 11:45;97,45
2017-09-16 12:00;95,05
2017-09-16 12:15;95,6
2017-09-16 12:30;93,45
2017-09-16 12:45;94,25
2017-09-16 13:00;95,15
2017-09-16 13:15;96,4
2017-09-16 13:30;99,65
2017-09-16 13:45;100,85
2017-09-16 14:00;97,75
2017-09-16 14:15;97,9
2017-09-16 14:30;100,5
2017-09-16 14:45;99,6
2017-09-16 15:00;99,15
2017-09-16 15:15;98,8
2017-09-16 15:30;95,5
2017-09-16 15:45;98,9
2017-09-16 16:00;96,5
2017-09-16 16:15;94,5
2017-09-16 16:30;101,65
2017-09-16 16:45;100,65
2017-09-16 17:00;100,25
2017-09-16 17:15;101,8
2017-09-16 17:30;103,25
2017-09-16 17:45;102,2
2017-09-16 18:00;105,85
2017-09-16 18:15;106,9
2017-09-16 18:30;100,85
2017-09-16 18:45;103,85
2017-09-16 19:00;95,15
2017-09-16 19:15;100,6
2017-09-16 19:30;102,45
2017-09-16 19:45;102,9
2017-09-16 20:00;100,4
2017-09-16 20:15;104,85
2017-09-16 20:30;101,3
2017-09-16 20:45;99,75
2017-09-16 21:00;100,15
2017-09-16 21:15;97,15
2017-09-16 21:30;101,05
2017-09-16 21:45;99,1
2017-09-16 22:00;91,95
2017-09-16 22:15;96,95
2017-09-16 22:30;97,5
2017-09-16 22:45;97
2017-09-16 23:00;101,9
2017-09-16 23:15;91,9
2017-09-16 23:30;91,5
2017-09-16 23:45;88,5
2017-09-17 00:00;89,2
2017-09-17 00:15;92,1
2017-09-17 00:30;91,6
2017-09-17 00:45;92,85
2017-09-17 01:00;89,2
2017-09-17 01:15;91,75
2017-09-17 01:30;89,4
2017-09-17 01:45;86,25
2017-09-17 02:00;88,7
2017-09-17 02:15;86,55
2017-09-17 02:30;87,15
2017-09-17 02:45;86,6
2017-09-17 03:00;84,35
2017-09-17 03:15;88,7
2017-09-17 03:30;84,4
2017-09-17 03:45;85,95
2017-09-17 04:00;88,95
2017-09-17 04:15;84,55
2017-09-17 04:30;84,9
2017-09-17 04:45;87,85
2017-09-17 05:00;85,1
2017-09-17 05:15;87
2017-09-17 05:30;87,9
2017-09-17 05:45;86,35
2017-09-17 06:00;90,9
2017-09-17 06:15;89,05
2017-09-17 06:30;94,1
2017-09-17 06:45;91,2
2017-09-17 07:00;90,5
2017-09-17 07:15;90,2
2017-09-17 07:30;88,15
2017-09-17 07:45;86,95
2017-09-17 08:00;83,85
2017-09-17 08:15;87,45
2017-09-17 08:30;88,85
2017-09-17 08:45;85,25
2017-09-17 09:00;86,35
2017-09-17 09:15;87,55
2017-09-17 09:30;84,35
2017-09-17 09:45;89,65
2017-09-17 10:00;86,35
2017-09-17 10:15;85,75
2017-09-17 10:30;90,85
2017-09-17 10:45;89,55
2017-09-17 11:00;97,9
2017-09-17 11:15;98,4
2017-09-17 11:30;96,1
2017-09-17 11:45;98,95
2017-09-17 12:00;94,3
2017-09-17 12:15;97,65
2017-09-17 12:30;92,1
2017-09-17 12:45;95,35
2017-09-17 13:00;92,75
2017-09-17 13:15;91,95
2017-09-17 13:30;95,3
2017-09-17 13:45;97,05
2017-09-17 14:00;94,4
2017-09-17 14:15;98,1
2017-09-17 14:30;101,2
2017-09-17 14:45;100,8
2017-09-17 15:00;101,95
2017-09-17 15:15;99,45
2017-09-17 15:30;95,9
2017-09-17 15:45;98,55
2017-09-17 16:00;95,6
2017-09-17 16:15;99,5
2017-09-17 16:30;99,45
2017-09-17 16:45;98,2
2017-09-17 17:00;99,7
2017-09-17 17:15;96,5
2017-09-17 17:30;100,7
2017-09-17 17:45;98,65
2017-09-17 18:00;100,65
2017-09-17 18:15;96,7
2017-09-17 18:30;93,95
2017-09-17 18:45;97,15
2017-09-17 19:00;95,9
2017-09-17 19:15;98
2017-09-17 19:30;97,6
2017-09-17 19:45;103,4
2017-09-17 20:00;103,3
2017-09-17 20:15;103,15
2017-09-17 20:30;104,4
2017-09-17 20:45;104,6
2017-09-17 21:00;103,95
2017-09-17 21:15;101,1
2017-09-17 21:30;102
2017-09-17 21:45;92,2
2017-09-17 22:00;90,3
2017-09-17 22:15;96,15
2017-09-17 22:30;96,8
2017-09-17 22:45;96,2
2017-09-17 23:00;99,05
2017-09-17 23:15;88,6
2017-09-17 23:30;85,5
2017-09-17 23:45;86,85

